Theta_e
318 313 312 316 319 321 320 320 319 319 320 318 317 318 319 320 321 323 324 326 327 328 328 329 329 330 330 330 330 329 329 328 329 330 332 333 333 332 331 329 327 322 319 320 322 323 325 327 331 335 336 336 334 330 324 321 317 312 309 308 308 308 307 313 326 334 335 335 334 328 322 325 325 322 320 317 314 313 312 311 311 311 311 311 311
316 312 313 315 318 319 320 319 319 319 320 318 317 318 320 320 322 323 324 326 327 328 329 329 329 330 330 330 330 329 329 329 329 331 332 333 333 332 332 331 329 323 319 320 322 322 321 321 323 329 333 332 328 323 319 317 314 310 309 308 308 308 310 320 331 334 335 335 330 320 318 321 320 318 316 314 312 312 312 311 311 311 311 311 311
315 312 313 314 316 317 319 319 319 320 320 318 316 318 319 321 322 323 325 326 327 328 329 329 329 330 330 330 329 329 329 329 329 331 332 333 332 330 329 328 326 321 318 319 321 319 317 316 316 321 327 327 323 318 316 315 312 310 310 311 311 314 319 328 333 334 334 330 322 316 316 316 314 313 312 312 311 311 311 311 311 311 311 311 311
314 312 312 313 316 316 318 319 318 320 320 318 316 318 320 320 321 323 325 326 328 328 329 329 329 330 330 329 329 329 328 329 328 329 329 329 328 327 325 323 320 317 316 317 317 314 311 311 312 316 321 322 319 315 316 315 312 311 312 315 319 323 327 330 331 330 327 321 316 315 315 314 313 311 311 311 310 310 310 310 311 310 311 311 311
315 312 312 313 315 315 318 318 318 319 320 318 317 319 319 320 321 322 324 326 327 327 328 329 330 330 330 330 329 329 329 327 326 327 327 326 325 322 320 318 315 314 314 312 310 308 308 308 309 313 316 315 314 316 317 316 314 313 313 315 319 322 323 323 323 322 319 317 315 315 314 313 312 311 310 310 310 310 310 311 311 310 311 310 311
315 313 313 313 315 315 317 318 319 319 320 318 316 318 320 320 320 321 324 326 326 326 327 329 330 329 329 330 330 330 328 325 322 322 322 321 319 317 316 315 313 310 309 307 307 307 307 307 308 309 311 313 316 318 317 317 317 316 314 314 313 314 314 315 315 314 314 313 312 312 312 312 311 310 311 311 311 310 311 311 310 311 310 310 310
315 313 312 313 315 314 316 318 318 319 319 318 316 318 319 319 320 322 324 325 325 326 328 330 330 329 330 330 330 329 325 321 318 317 315 314 314 315 315 312 309 308 308 307 308 307 307 307 308 310 313 317 318 319 318 319 318 316 315 314 313 312 311 311 311 311 312 312 311 311 311 310 310 310 311 311 311 311 311 311 311 310 310 310 310
314 312 313 313 314 315 316 318 318 319 320 318 317 317 318 319 321 322 323 325 326 327 328 330 330 330 329 329 329 325 319 317 315 313 311 312 313 313 312 309 308 308 308 308 308 309 309 311 313 316 319 320 319 319 320 320 318 317 317 317 316 313 313 314 315 314 314 314 314 314 313 313 313 313 312 312 312 311 310 311 311 310 310 311 311
314 312 313 313 314 315 316 318 319 319 320 319 317 316 318 320 322 323 324 325 327 328 329 330 329 329 329 327 325 319 317 316 314 311 311 312 311 310 309 308 308 308 308 309 310 312 314 316 318 320 320 320 321 322 322 322 321 321 321 322 320 316 316 319 319 317 316 316 316 316 316 316 316 316 315 315 315 313 313 313 312 312 312 312 312
313 312 312 313 314 315 317 319 320 320 320 319 316 317 319 322 323 323 324 326 328 329 329 329 329 328 327 325 321 318 317 316 312 309 310 310 309 308 308 308 308 309 309 310 312 315 317 319 321 322 322 323 324 324 325 325 325 325 325 325 325 321 319 321 321 320 318 317 316 316 317 317 317 317 317 317 317 317 316 316 316 315 315 315 315
313 312 312 313 314 315 317 319 321 321 320 318 316 317 320 324 324 325 326 327 328 329 329 328 328 327 326 323 319 318 317 314 311 309 310 309 308 308 309 309 309 309 310 311 314 316 319 320 322 323 325 327 327 326 326 326 327 327 327 327 327 325 322 322 323 323 322 320 319 318 319 319 319 319 318 318 318 318 318 318 318 318 317 317 317
313 312 312 313 314 315 318 320 321 321 321 318 316 318 323 326 326 327 327 327 328 328 328 328 327 327 325 322 320 318 315 312 310 309 310 309 308 309 309 309 310 310 310 312 314 316 319 321 322 324 327 328 327 327 326 326 327 327 328 328 328 327 326 325 326 326 324 324 323 322 323 323 324 322 320 319 319 319 318 318 319 319 319 319 319
313 312 312 313 313 315 319 321 322 321 321 319 317 320 326 328 328 328 327 328 328 329 328 328 327 327 325 322 319 316 314 312 309 309 309 309 309 309 309 310 310 311 310 311 314 317 320 321 323 325 327 327 328 328 327 326 326 327 328 329 329 328 327 327 327 328 328 326 326 325 326 326 326 326 324 323 322 322 321 321 320 320 320 320 320
313 312 312 313 313 315 318 320 320 321 321 319 317 320 327 329 329 328 328 328 329 329 328 328 328 327 325 322 317 315 313 310 309 309 310 309 309 309 310 311 311 311 311 311 313 317 320 322 323 325 327 328 328 328 328 328 328 328 328 329 329 328 327 327 328 329 329 328 327 328 328 328 328 329 328 327 327 327 327 326 324 323 322 321 320
312 312 312 313 314 314 317 318 318 320 320 319 317 321 328 329 329 328 328 330 330 329 328 328 328 327 325 320 317 314 312 310 309 309 309 310 309 309 310 311 311 312 312 312 312 315 319 321 323 326 327 328 328 328 329 329 329 328 328 329 328 328 328 328 328 329 329 329 329 329 329 329 329 330 330 330 330 329 329 330 329 328 326 324 322
312 312 312 313 314 314 316 318 318 319 320 319 318 322 328 329 329 329 329 330 330 329 328 328 328 326 323 319 316 312 310 310 309 309 309 310 309 310 310 311 312 312 312 312 312 314 317 321 324 326 328 328 329 329 330 330 330 328 328 329 328 328 328 327 328 327 328 329 330 329 329 329 329 329 330 330 330 330 330 330 330 330 330 329 327
312 312 313 313 313 314 315 318 319 320 321 320 319 323 328 329 329 329 330 331 330 329 328 327 326 324 321 316 313 310 310 309 309 309 309 310 310 310 310 311 311 312 312 312 312 313 316 320 323 326 328 329 330 330 331 331 330 330 329 330 329 329 328 327 327 326 327 328 330 330 330 330 329 329 330 330 330 330 330 330 330 330 330 331 331
313 314 314 313 313 314 315 318 320 321 321 320 320 326 329 328 329 330 331 331 330 329 327 326 324 320 317 312 309 309 310 310 310 310 309 310 310 310 310 311 311 311 312 312 312 313 314 318 322 326 328 329 329 330 330 329 329 329 330 331 331 329 329 328 326 324 324 326 329 330 330 330 330 330 330 331 331 331 330 331 330 330 331 331 331
316 316 315 314 314 315 318 320 320 321 321 319 324 330 330 329 329 331 332 331 330 329 327 324 321 317 312 309 308 309 310 310 310 310 310 310 310 310 310 311 311 311 311 311 312 312 314 317 321 325 328 329 329 330 330 328 327 328 329 331 331 330 330 328 325 323 323 324 328 330 330 331 330 330 331 331 331 331 331 331 331 331 331 331 332
319 317 315 315 315 317 320 323 322 322 321 321 329 332 330 330 330 331 332 331 330 329 327 323 319 314 310 308 308 308 309 310 310 311 311 310 310 310 310 311 311 311 312 312 312 312 313 315 318 322 324 325 326 326 326 325 323 324 328 330 331 331 329 328 327 326 326 326 328 329 329 330 330 330 330 330 331 331 331 331 331 331 332 332 332
320 317 316 316 317 321 323 326 324 321 320 323 332 334 331 331 331 332 332 331 331 329 326 322 318 313 309 308 308 308 309 309 310 311 312 312 311 310 311 311 311 312 312 312 313 313 314 314 315 317 318 319 320 320 320 321 320 321 326 330 331 329 327 327 329 328 328 328 328 329 329 329 329 329 329 330 331 331 331 331 331 332 332 332 332
322 319 318 316 318 324 327 329 325 321 320 322 331 335 333 332 332 332 332 331 331 329 325 322 318 313 308 308 308 308 308 309 310 311 312 312 311 311 312 311 312 312 313 314 314 315 315 315 316 316 317 317 317 318 318 319 320 321 324 328 329 327 327 328 329 329 329 328 328 328 329 329 329 330 330 330 331 331 331 332 332 332 332 332 332
326 321 320 317 319 326 328 327 323 320 322 322 327 335 336 335 335 334 332 332 330 328 325 321 316 311 308 308 308 308 308 309 309 310 311 311 311 312 312 312 313 314 314 315 315 315 316 317 317 318 318 318 318 318 317 318 318 319 321 325 326 325 327 328 328 329 329 329 329 329 329 329 330 331 331 331 331 331 332 331 332 332 332 332 333
331 325 321 320 321 327 328 324 321 320 321 323 326 334 338 336 337 335 332 332 330 328 324 318 313 310 309 308 308 309 309 309 309 309 310 310 310 310 312 312 313 315 315 316 315 316 316 316 315 315 314 315 315 316 316 316 316 317 317 319 321 322 325 326 326 328 329 329 330 330 330 330 331 332 332 332 332 331 332 332 332 332 333 333 332
333 327 322 321 322 324 327 322 319 320 319 321 327 334 337 336 337 335 332 331 329 326 320 315 315 314 311 310 309 309 309 310 310 310 310 309 309 310 310 311 312 312 313 313 313 313 313 313 314 314 315 316 318 320 321 321 321 321 320 320 321 322 324 326 327 328 329 330 330 331 331 331 332 332 332 332 332 332 332 332 332 332 333 333 333
333 328 323 322 322 321 323 319 318 320 319 321 328 334 336 337 337 334 332 331 328 323 317 317 322 320 317 314 312 311 313 314 313 313 313 313 313 313 313 313 314 312 312 313 313 314 316 318 320 322 323 323 325 326 327 328 328 328 328 327 327 327 328 329 330 330 330 331 331 332 332 332 332 332 333 333 332 333 332 332 332 332 332 332 333
335 330 324 322 322 319 318 316 317 319 321 326 330 333 336 336 336 333 331 330 327 320 318 324 327 326 322 319 317 317 318 318 319 318 318 319 320 321 322 323 323 322 323 324 325 326 326 326 327 328 328 329 329 329 330 330 330 330 330 330 329 329 329 329 330 330 330 330 331 331 331 332 332 333 333 333 333 333 333 332 332 332 332 332 332
337 330 324 321 319 316 315 315 317 317 323 329 329 332 335 334 333 331 330 329 325 319 322 329 330 328 326 323 321 321 323 324 325 325 324 325 326 328 329 331 331 331 331 332 332 332 331 331 330 330 330 330 330 330 330 329 329 328 328 328 327 327 327 327 328 328 328 329 330 330 331 331 332 333 333 333 333 333 333 332 332 332 332 332 332
335 330 325 321 316 314 314 315 316 315 322 327 328 332 334 333 331 330 330 330 325 319 323 331 331 329 327 324 323 323 325 327 327 327 327 329 330 331 332 333 333 333 333 333 332 332 331 330 330 329 329 328 328 328 328 328 328 327 327 326 326 326 326 326 326 327 327 328 329 329 330 330 331 332 332 332 332 332 332 332 332 332 332 332 333
333 330 328 323 316 314 314 315 316 315 320 325 329 333 333 332 331 331 331 330 326 321 324 332 332 329 327 324 323 323 324 325 326 327 329 331 331 331 332 333 333 333 333 333 332 330 329 328 327 327 326 326 326 327 327 328 328 327 326 326 326 325 325 326 326 327 328 328 328 329 329 330 330 331 331 331 330 330 330 331 332 331 331 332 332
334 332 329 322 316 313 313 315 316 315 322 328 331 333 333 333 332 331 331 330 327 323 326 332 331 330 328 324 322 323 324 325 327 329 330 331 330 331 331 333 333 333 333 332 330 328 326 326 326 325 326 326 326 327 327 327 327 326 326 326 326 327 327 327 327 327 328 328 328 328 329 329 329 329 329 329 329 329 329 331 331 331 331 332 332
336 335 330 323 318 314 312 314 314 317 324 330 331 333 334 333 330 330 331 330 328 325 328 331 329 330 329 324 322 323 326 329 330 331 331 331 331 331 332 333 333 332 331 329 327 325 325 325 326 326 327 327 327 326 325 325 325 325 327 327 328 328 328 328 328 328 328 328 328 328 328 329 329 330 330 330 330 329 329 330 331 330 331 331 332
339 339 335 329 323 317 312 313 315 320 327 330 331 333 333 331 329 331 332 330 328 326 328 329 330 332 329 324 322 323 328 330 331 331 331 331 331 332 332 332 331 330 329 328 327 326 326 327 327 327 328 328 326 325 324 324 325 326 327 327 328 328 329 329 329 329 329 329 329 329 329 329 330 331 331 330 330 330 330 330 329 329 330 330 331
342 341 338 333 326 318 312 313 317 324 329 330 331 331 331 329 329 332 332 330 328 327 328 330 331 332 329 324 322 325 328 329 329 329 330 332 332 332 332 332 331 330 330 330 329 329 329 329 328 328 328 326 324 323 323 323 323 324 324 325 326 327 328 328 329 329 329 329 329 329 330 331 331 331 330 330 330 330 330 329 329 329 329 330 330
342 342 340 335 326 318 313 313 318 326 330 328 328 329 330 330 331 332 332 330 328 328 331 332 331 331 328 325 324 328 329 329 329 329 331 332 333 333 332 331 331 331 332 332 331 331 330 329 329 328 327 324 322 322 322 321 321 321 321 321 322 323 325 328 328 329 329 330 330 331 331 331 330 330 330 330 329 330 330 330 330 330 329 329 329
343 342 340 335 327 319 314 313 314 323 326 325 327 329 330 331 333 332 332 331 329 330 332 332 331 329 328 326 327 329 329 330 330 331 332 332 332 333 331 330 331 332 332 332 332 332 331 329 328 327 324 322 320 320 320 319 319 319 318 318 318 319 322 326 328 329 330 331 332 332 331 331 330 329 330 330 330 330 330 330 330 330 329 329 329
343 342 340 337 331 321 314 314 314 318 323 323 326 330 331 332 333 333 332 331 331 332 333 332 331 329 328 328 329 329 330 331 332 333 332 331 330 331 331 331 331 332 332 332 332 331 331 329 328 325 322 320 318 318 317 317 317 317 317 317 316 316 320 325 328 329 330 331 331 331 330 330 330 330 329 329 330 330 330 330 330 330 330 330 329
343 342 340 337 332 323 316 316 315 317 321 322 326 330 330 333 334 333 332 332 333 333 333 332 331 330 330 328 329 329 331 333 333 333 331 330 330 330 331 332 333 333 332 332 331 331 330 329 327 323 320 318 317 316 316 316 316 316 317 317 316 317 321 326 328 330 331 331 330 330 330 329 329 329 329 328 329 329 329 329 329 329 330 330 330
342 342 340 337 332 324 319 320 319 318 319 319 327 328 325 330 335 333 332 333 334 334 333 332 331 332 331 329 330 331 332 333 333 333 332 332 332 331 333 333 333 333 333 332 331 330 329 328 326 322 319 317 315 315 315 315 315 315 315 315 315 317 322 327 329 330 329 329 329 329 328 328 328 327 327 326 325 324 325 325 325 325 326 327 328
342 341 340 337 332 326 323 324 323 322 321 319 325 326 322 330 335 332 333 334 334 333 333 332 332 332 331 331 332 333 334 333 332 332 332 333 333 333 333 333 333 333 333 332 330 329 327 326 324 321 317 315 315 315 314 314 314 313 313 314 315 318 322 326 328 328 328 327 326 325 325 324 324 324 323 321 319 318 316 317 318 319 320 321 323
342 341 339 337 333 328 326 328 328 328 327 323 323 324 324 329 333 332 333 334 333 333 332 332 331 331 331 332 333 334 334 333 333 332 332 333 333 334 333 333 333 332 332 331 330 328 325 324 322 318 315 315 315 314 314 314 313 314 313 313 316 320 322 325 327 328 327 325 323 322 321 321 320 318 316 313 311 310 309 310 311 312 313 314 316
342 341 340 336 332 329 330 333 333 331 330 327 324 323 323 327 331 333 333 333 333 332 332 331 330 331 332 333 335 335 334 333 332 333 333 333 333 333 333 333 332 332 331 330 329 327 324 322 319 316 315 315 314 314 314 313 313 313 311 312 316 319 321 324 325 325 323 320 318 316 316 314 311 309 306 304 303 303 304 304 305 306 307 308 310
341 341 339 336 332 330 333 335 335 332 330 328 326 323 323 326 331 332 332 333 333 333 332 331 331 331 333 334 335 335 334 333 333 333 333 333 333 333 332 332 331 330 329 328 328 325 322 319 317 316 315 314 313 313 313 312 311 309 308 312 314 318 324 321 316 316 315 315 312 309 307 305 303 302 300 301 300 300 301 300 301 301 302 303 304
341 341 340 336 331 331 336 337 335 332 331 330 326 323 325 329 332 333 333 333 333 332 332 332 332 332 334 335 335 334 333 332 333 333 332 332 332 332 331 331 329 328 327 326 325 322 318 316 316 315 314 313 313 313 311 308 306 305 305 309 310 317 321 312 309 312 309 307 306 302 301 300 300 300 300 300 300 300 300 299 299 299 299 300 300
340 341 340 337 334 333 337 338 336 334 332 330 328 327 329 331 333 334 334 333 333 332 332 333 333 333 335 334 334 334 333 332 332 332 333 332 332 331 331 329 328 326 324 323 320 317 316 316 315 314 313 313 312 310 307 304 303 303 303 306 311 316 313 304 308 312 304 301 302 299 300 300 300 300 300 300 300 300 300 300 300 300 300 300 300
341 341 340 339 338 337 338 338 337 335 333 331 331 332 333 333 333 334 334 333 333 333 332 332 333 333 335 334 333 333 333 332 332 332 332 332 331 331 330 329 327 325 322 319 316 315 316 316 314 313 313 311 309 305 304 303 303 303 302 303 306 308 305 301 304 306 303 301 300 300 301 300 300 300 300 300 300 300 301 301 301 301 301 301 301
341 341 340 340 340 339 339 337 337 336 333 332 332 334 334 334 334 334 333 333 333 332 331 332 333 334 334 333 333 333 333 332 332 331 331 331 331 331 329 328 325 322 319 317 316 316 315 314 313 313 311 307 304 303 302 302 302 302 302 301 301 301 301 300 300 301 303 302 300 300 301 301 301 301 300 301 301 301 301 301 301 301 301 301 301
340 340 340 340 339 339 338 336 336 336 335 333 333 333 334 335 334 334 333 333 333 332 332 333 334 334 334 333 333 333 332 331 330 330 331 331 330 329 327 325 321 318 317 316 316 315 313 313 312 310 306 303 302 302 302 302 302 301 301 301 301 300 300 300 300 300 301 302 301 300 299 300 300 300 300 301 300 301 301 301 301 301 301 301 302
340 340 339 339 338 337 337 336 336 336 335 334 334 334 334 334 334 333 334 333 332 333 334 334 333 333 334 333 332 332 331 330 330 330 331 331 328 326 323 320 318 317 316 316 314 313 312 312 309 306 303 302 302 302 302 302 301 301 301 300 300 300 300 300 301 300 299 301 301 299 299 300 300 300 300 300 300 300 300 300 300 300 301 301 301
339 338 338 337 337 337 337 336 335 335 335 334 333 334 333 333 333 333 333 332 332 334 334 334 333 333 333 332 331 331 330 330 330 330 330 329 326 322 319 318 317 316 314 313 313 312 311 309 305 303 302 302 302 302 301 301 301 300 300 300 300 300 301 300 300 300 299 299 299 298 298 299 299 299 298 298 298 298 299 299 299 300 300 301 301
337 337 337 336 336 337 337 336 336 336 335 334 333 333 333 333 333 333 333 333 333 334 334 333 333 332 332 331 331 330 329 330 330 330 328 326 323 319 318 316 315 313 313 312 312 311 308 304 302 302 301 302 302 301 301 301 300 301 300 300 301 301 300 300 299 299 299 299 299 298 298 298 299 299 297 298 298 297 298 298 299 299 300 300 301
Wind_Speed
25 23 21 21 22 20 19 18 18 18 18 18 17 16 15 14 14 15 15 14 13 13 12 12 11 12 12 12 12 12 11 11 10 10 10 10 10 10 10 9 8 7 6 6 6 6 5 5 6 6 6 5 5 6 6 7 7 6 6 6 6 9 13 16 16 13 11 11 9 9 10 10 10 10 10 9 9 9 9 10 10 10 10 10 10
27 24 22 22 21 20 19 19 18 18 18 18 18 17 16 15 14 14 14 14 13 13 12 11 12 12 12 12 11 11 10 10 10 10 10 9 9 9 8 7 7 6 6 6 7 6 4 4 5 5 4 4 5 6 6 7 7 8 10 10 9 12 17 18 16 13 11 10 9 10 10 10 9 8 8 8 8 8 9 10 10 10 9 10 9
27 25 23 22 21 20 20 19 19 19 18 18 18 18 17 16 15 14 14 14 14 13 12 11 12 12 12 11 11 10 10 10 10 10 9 9 8 7 6 6 5 5 6 6 6 5 5 5 6 6 5 3 4 5 6 7 9 12 13 14 15 16 18 17 14 13 11 10 10 10 9 8 7 7 7 7 8 8 9 9 9 9 9 9 9
27 26 23 22 21 21 20 20 20 19 19 18 18 18 18 17 16 15 14 14 14 13 12 11 12 12 11 11 11 10 10 9 9 9 9 8 8 7 6 5 5 7 7 7 6 5 6 7 7 7 6 4 4 5 7 10 12 15 16 16 17 17 16 15 13 12 11 11 10 10 9 8 7 7 7 7 8 8 8 8 8 8 8 8 8
27 26 24 23 22 21 21 21 21 21 20 19 18 18 18 17 16 15 14 14 13 13 12 12 12 11 11 10 10 10 9 9 9 9 9 8 8 7 7 7 7 8 9 8 8 7 8 9 9 9 8 6 6 9 11 14 15 17 17 17 16 16 15 14 13 12 11 10 10 10 9 8 8 8 8 8 8 8 8 8 8 8 8 8 7
27 26 25 24 23 22 22 22 22 21 21 20 19 18 18 17 17 15 14 14 13 13 12 12 12 11 10 10 10 9 9 8 9 9 9 8 8 9 9 9 9 10 10 10 10 10 10 11 11 11 10 10 11 14 15 16 17 17 17 17 17 15 14 13 13 12 11 11 10 10 10 9 9 9 9 8 8 8 8 8 8 8 8 8 7
27 26 25 25 24 23 22 22 22 22 21 21 20 19 18 17 17 16 15 14 14 13 13 12 11 11 10 9 9 8 8 9 9 9 9 9 10 11 11 11 11 11 11 11 12 13 14 14 14 14 14 14 16 17 17 17 18 18 18 18 18 17 16 15 15 14 14 14 14 13 13 13 12 12 11 11 10 9 8 8 9 9 9 9 8
27 26 25 24 24 23 23 23 23 22 22 21 21 20 18 17 16 16 15 15 14 14 13 12 11 11 10 9 9 8 9 10 10 10 10 11 12 12 13 12 12 12 12 13 14 15 16 17 17 17 17 17 17 17 17 18 18 18 18 19 19 19 19 18 18 17 17 17 16 16 16 15 14 13 13 12 12 11 10 10 9 9 9 9 9
28 26 25 24 24 23 24 24 23 23 22 21 21 20 19 17 16 16 16 15 15 14 13 12 11 11 10 9 9 9 9 10 10 11 12 13 14 14 13 13 13 13 13 14 15 16 17 17 17 17 17 16 16 16 17 17 17 17 18 18 18 18 18 18 17 17 17 17 16 16 16 15 15 14 13 13 12 12 11 11 10 10 9 9 9
28 26 25 24 24 24 24 24 23 23 22 21 21 20 19 18 17 16 16 15 15 14 13 12 12 11 10 9 9 9 9 9 10 11 13 14 15 15 14 13 13 13 14 15 15 15 16 16 16 16 16 15 15 15 15 16 16 15 15 16 16 16 16 16 16 16 16 16 16 16 15 15 15 15 14 14 13 13 12 11 10 10 10 10 9
28 26 24 24 24 25 25 24 24 23 22 21 21 20 19 17 17 16 16 15 15 14 13 12 12 11 10 10 10 9 9 9 10 12 13 15 16 15 14 13 13 13 14 14 15 15 14 14 14 14 14 13 13 13 14 14 14 13 13 13 13 14 14 14 14 15 14 14 14 14 14 14 15 14 14 14 14 14 13 13 12 12 11 10 10
27 26 24 24 24 25 25 25 24 23 22 21 21 20 18 17 16 16 15 15 14 14 13 12 12 11 11 11 10 9 9 9 10 12 13 15 16 16 14 13 13 12 13 13 14 14 13 13 13 12 11 10 10 10 11 12 12 11 11 11 11 11 12 12 12 13 13 13 13 13 13 14 14 13 13 14 14 14 15 15 15 14 13 12 11
27 25 24 25 25 25 25 25 24 23 23 21 21 20 18 17 16 16 15 14 14 13 13 12 12 12 12 11 10 9 9 9 10 12 13 14 15 15 14 13 13 12 12 12 13 13 12 12 11 10 9 9 8 8 8 9 10 10 9 9 9 10 10 10 11 10 11 11 11 11 11 12 12 12 12 12 13 14 14 14 15 15 14 14 13
26 25 24 25 25 25 25 25 25 24 23 22 22 20 19 17 16 15 14 14 13 13 13 13 13 12 12 10 10 9 9 9 10 12 13 14 14 15 14 13 12 12 11 11 12 12 12 11 10 9 8 7 6 5 5 6 7 7 8 8 8 8 8 9 9 8 9 9 9 9 10 10 10 11 11 11 12 12 13 13 13 14 14 14 14
24 24 24 24 24 25 25 24 24 24 24 23 22 21 19 17 17 15 14 14 13 13 13 13 13 12 11 10 10 9 9 9 10 11 12 13 14 14 13 13 12 11 11 11 11 11 11 10 10 9 7 6 5 4 4 4 4 5 6 6 6 6 7 7 7 7 7 8 8 8 8 9 9 10 10 11 11 12 12 13 13 13 14 14 14
23 24 24 23 23 24 24 24 24 24 24 23 23 21 19 17 16 15 14 14 13 13 13 13 13 12 11 10 9 9 9 9 10 11 12 12 13 13 13 12 12 11 11 11 11 11 10 10 9 8 7 5 4 3 2 1 2 3 4 5 5 5 5 6 7 7 7 7 7 7 8 8 9 9 10 11 12 12 13 13 13 14 14 14 14
25 24 23 23 23 24 25 25 25 24 24 23 23 21 19 17 16 15 15 14 14 13 13 13 13 12 11 10 10 10 10 9 9 10 11 12 12 12 12 12 11 11 11 10 10 10 10 9 8 7 6 5 4 2 2 1 1 2 3 4 5 6 6 6 6 7 7 7 7 7 7 8 9 9 10 11 12 13 13 13 13 14 14 14 14
25 24 23 23 23 25 26 26 26 26 25 23 22 20 19 17 16 15 15 15 14 13 13 13 12 12 11 10 11 11 10 9 9 9 10 11 11 12 12 11 11 10 10 10 10 10 10 9 8 7 6 6 5 4 3 3 3 3 3 3 5 7 7 7 8 8 8 8 7 7 7 7 8 9 9 10 11 12 13 13 14 14 14 14 14
25 24 24 23 24 25 26 26 27 27 26 24 22 21 19 17 16 16 16 15 14 13 13 12 12 11 11 11 12 11 11 10 9 8 9 9 10 11 11 11 11 10 9 9 9 9 9 9 8 8 7 7 6 5 5 6 5 5 5 4 5 7 8 9 10 10 9 8 7 7 7 7 7 8 8 9 9 11 12 13 13 14 14 14 14
25 25 25 25 26 26 26 26 27 28 27 25 22 21 20 17 17 16 16 15 14 13 12 12 11 11 12 12 12 11 11 10 9 9 9 9 9 10 11 11 10 10 9 9 8 8 8 8 8 8 8 8 7 7 7 8 8 8 8 7 7 8 8 9 10 9 8 8 8 7 8 8 7 8 8 8 8 9 10 12 12 13 13 13 14
27 27 27 26 26 25 25 24 26 28 27 26 22 21 20 18 18 17 16 15 14 13 12 11 10 11 12 13 12 11 11 10 10 9 9 9 9 9 10 11 10 10 9 8 8 7 7 7 7 7 7 7 7 7 7 8 8 9 9 9 8 8 8 8 8 8 8 8 8 8 8 8 8 8 8 8 8 9 10 11 12 12 13 13 14
29 28 27 27 26 24 24 23 25 28 27 26 23 20 20 19 19 19 17 16 15 13 11 10 10 12 13 13 12 12 11 10 10 9 9 9 9 9 9 10 10 9 8 8 7 7 7 6 5 5 5 5 6 6 7 7 8 8 9 10 10 9 8 8 8 9 9 9 9 9 9 9 9 9 9 10 9 9 10 11 12 13 13 14 14
30 29 28 27 26 23 23 24 25 27 27 26 24 20 19 19 19 19 19 17 15 13 11 11 11 13 13 13 12 11 11 10 10 9 9 9 9 9 9 9 9 8 8 7 7 6 5 5 4 4 4 5 6 7 7 8 8 9 10 10 11 11 10 10 10 10 10 10 10 10 10 10 10 10 10 10 10 10 10 11 11 11 12 13 14
30 30 29 27 26 24 24 25 26 28 27 25 24 21 18 18 19 18 19 17 15 13 12 12 13 13 13 12 12 11 10 9 9 9 8 8 8 8 8 8 8 8 7 6 5 4 4 3 3 3 4 4 5 6 7 7 8 9 10 11 12 13 13 13 13 12 11 11 11 12 11 11 11 12 12 12 11 11 11 13 14 12 12 13 15
30 29 29 28 27 25 24 25 27 27 27 26 24 22 19 18 18 18 19 17 15 13 13 14 13 13 13 12 12 11 10 9 9 9 8 7 7 7 7 7 7 6 5 4 3 2 2 2 2 2 3 4 4 5 6 7 8 9 9 10 11 12 13 13 13 12 12 12 12 12 12 12 13 13 13 13 13 13 13 14 15 14 13 14 15
30 29 29 28 27 26 25 25 27 27 27 26 24 21 19 18 18 19 19 17 14 13 15 15 14 13 13 12 12 11 11 10 9 8 8 7 7 7 7 6 5 5 4 3 2 1 1 2 2 3 3 4 5 6 7 8 8 9 10 10 11 12 12 13 12 12 13 13 13 13 14 14 14 14 14 14 14 15 15 15 15 15 15 16 17
31 29 29 27 25 25 25 25 27 28 26 24 22 20 18 18 18 19 18 17 15 14 16 15 14 13 13 12 12 11 11 10 9 8 8 8 8 8 7 7 6 5 3 2 1 0 2 2 3 4 4 5 6 7 8 9 9 9 10 10 11 11 12 12 13 13 13 14 14 15 15 15 15 15 15 15 15 15 15 15 15 15 15 17 18
30 29 28 27 25 24 24 24 26 28 25 22 21 20 17 18 19 19 18 17 15 15 16 15 14 13 13 12 12 12 11 10 9 8 8 8 8 7 7 6 5 4 3 2 1 1 1 2 3 4 5 5 6 6 7 8 9 10 11 11 12 13 13 13 13 14 14 14 15 15 15 15 15 15 15 15 15 15 15 14 15 15 16 17 18
29 28 27 26 25 24 23 24 25 26 25 22 21 19 17 18 19 20 18 17 16 15 16 15 13 13 12 12 12 12 12 10 9 8 7 7 7 6 5 4 4 3 2 2 1 1 1 2 2 3 4 5 6 7 7 9 10 11 12 13 14 14 14 15 15 15 15 15 16 16 16 16 15 15 15 14 14 14 13 13 14 15 15 16 16
28 26 25 24 24 23 23 23 24 25 25 22 20 18 18 18 19 20 18 17 15 15 16 15 13 11 11 12 12 13 12 10 9 8 6 6 6 5 5 4 3 3 2 1 1 1 2 2 3 4 5 6 7 8 9 10 11 12 13 14 15 15 15 15 16 16 16 16 17 17 17 17 17 16 16 16 16 15 14 13 13 14 14 13 13
27 24 23 23 23 23 23 23 24 25 24 21 19 18 17 18 19 19 17 16 15 15 15 14 12 10 9 11 12 12 11 10 8 7 6 5 5 5 5 5 4 3 2 2 1 2 3 4 5 6 6 7 8 8 9 11 12 13 14 15 15 15 15 15 15 16 16 17 17 17 17 17 17 17 17 17 16 16 15 13 13 13 13 12 12
24 22 21 22 22 22 22 23 25 24 22 20 19 18 17 17 18 18 17 15 14 14 14 13 11 9 8 9 11 11 10 10 9 7 6 5 5 5 5 5 4 3 2 1 2 3 5 6 6 6 7 7 8 10 11 12 13 13 13 13 13 13 13 13 14 14 15 15 16 16 16 15 15 15 15 15 14 14 14 13 13 13 13 13 13
22 20 20 21 21 20 21 23 24 23 21 19 18 18 17 17 17 17 17 15 13 12 13 12 10 9 7 8 9 10 10 10 8 7 5 4 4 5 5 5 4 3 1 1 3 5 6 7 7 7 8 8 9 10 11 11 11 11 11 11 11 11 11 12 12 12 13 13 14 14 14 13 13 13 13 13 13 13 13 13 13 13 14 14 13
21 20 20 21 19 20 21 23 23 22 20 19 17 17 18 18 17 17 16 14 13 12 12 11 10 8 7 7 8 9 9 8 7 6 4 2 2 3 3 3 2 1 1 3 5 6 8 9 9 9 9 9 9 10 10 10 9 10 10 10 10 10 10 11 11 11 11 12 12 12 12 12 11 11 12 12 12 12 12 12 12 13 13 13 12
20 20 20 20 19 20 22 23 23 21 19 18 18 19 18 18 17 17 16 14 13 13 12 11 8 7 7 7 7 8 7 6 5 4 3 2 1 1 1 1 1 2 3 5 6 8 9 10 10 9 9 9 10 10 10 9 9 9 10 10 10 11 10 10 10 10 10 10 10 10 10 10 11 11 12 12 12 12 11 11 12 13 13 13 13
20 21 21 20 20 20 22 23 22 20 18 19 20 20 18 18 17 16 16 15 15 14 12 10 8 7 7 7 6 6 5 4 4 3 2 2 1 1 0 1 2 3 4 5 7 9 10 11 10 10 10 10 10 10 9 9 9 10 11 11 11 11 11 10 9 9 9 8 8 8 9 9 10 11 10 10 11 11 11 12 13 13 14 14 14
21 22 22 21 21 21 22 22 23 22 20 20 21 20 19 18 17 16 17 16 16 14 12 10 8 7 7 7 7 6 4 3 2 2 2 2 1 1 1 1 2 3 4 6 7 10 11 11 11 11 11 11 11 9 9 9 9 10 12 12 12 12 11 9 8 7 7 6 6 7 8 9 9 10 10 10 10 11 12 12 13 14 14 15 15
23 23 23 23 22 22 23 23 23 23 21 20 22 20 19 19 18 17 18 17 16 14 12 10 9 7 6 7 7 6 4 3 2 2 2 2 1 1 1 2 3 4 5 6 7 9 11 12 12 13 13 13 12 10 9 9 10 11 12 12 12 11 9 7 6 5 5 5 6 6 7 8 9 10 11 11 11 12 12 13 14 14 15 16 16
24 24 24 24 23 23 24 23 23 22 21 22 23 21 20 20 19 19 19 18 16 14 11 10 9 7 6 5 5 5 4 3 3 3 2 2 1 1 1 2 3 4 5 6 7 9 10 12 13 14 14 13 12 12 12 12 12 12 12 12 11 10 8 5 4 4 5 6 6 7 8 10 11 12 13 13 14 14 15 16 16 16 16 16 17
24 24 25 25 24 25 25 24 23 22 21 23 24 23 23 23 21 21 20 18 15 13 12 11 10 7 5 5 4 4 3 4 4 3 3 2 1 1 1 2 3 4 5 7 8 9 10 11 13 14 13 12 12 13 14 13 13 12 12 12 10 9 8 6 5 5 6 8 9 10 11 13 14 14 15 17 18 18 18 18 18 18 17 17 17
25 24 26 26 25 26 26 25 23 23 22 24 25 25 25 24 22 22 20 18 16 15 15 13 10 7 6 5 4 3 3 4 4 4 3 3 1 1 2 3 4 4 5 7 8 8 9 11 12 12 12 13 13 13 14 14 13 12 11 10 9 7 8 8 7 6 9 12 13 14 14 15 16 17 18 19 19 19 19 18 18 17 18 18 18
25 25 26 26 26 27 26 25 23 23 23 23 24 24 25 25 23 22 20 18 17 16 14 11 9 7 6 5 4 3 4 5 5 4 4 3 1 1 3 4 4 5 6 7 8 8 9 11 12 12 13 14 15 15 15 15 14 13 11 7 5 7 7 6 6 9 12 13 14 15 15 16 17 18 19 19 18 18 18 17 17 17 17 18 18
26 26 26 26 27 27 26 25 24 24 24 24 23 22 23 23 21 20 19 17 16 14 11 10 9 7 6 5 4 5 6 6 4 3 3 2 1 2 3 4 5 6 7 8 8 9 9 10 10 12 13 14 15 16 15 15 14 14 13 7 3 3 1 3 8 10 11 12 14 15 15 17 18 18 18 16 16 16 16 16 16 16 17 17 18
27 27 27 27 28 29 28 26 25 26 25 23 22 22 22 21 20 20 18 16 14 13 11 10 9 8 7 6 6 7 7 6 5 3 3 2 2 2 3 5 6 6 6 7 8 8 8 8 9 11 13 14 15 15 15 15 14 14 12 8 6 6 3 6 9 8 11 12 11 13 14 15 15 15 15 14 15 16 16 16 17 18 18 18 18
29 28 27 28 28 30 30 27 27 28 25 24 24 23 22 20 21 21 19 16 14 13 12 11 10 9 8 7 7 8 7 6 5 3 2 2 2 3 6 7 7 6 5 6 6 6 7 8 9 11 12 13 14 15 15 15 14 13 13 10 8 5 6 11 10 7 11 12 12 15 16 15 15 15 15 14 15 16 17 18 19 20 20 20 20
30 28 28 28 29 31 31 30 30 28 26 25 24 21 20 20 20 21 19 17 16 14 13 11 10 9 8 7 7 7 6 5 4 3 2 3 3 6 8 8 7 6 5 5 5 6 7 8 9 11 12 12 13 13 13 13 13 13 13 13 11 7 9 13 11 9 10 12 16 18 17 17 18 19 19 19 20 21 21 22 22 22 22 22 22
29 28 28 29 30 31 31 31 29 26 25 23 19 18 20 19 18 18 17 16 15 13 11 10 9 9 10 8 6 6 6 5 4 3 3 4 6 8 9 8 6 5 5 5 5 6 7 8 10 11 11 12 12 11 11 12 13 13 14 14 13 12 12 14 14 12 11 12 17 19 16 17 19 19 20 21 23 24 24 24 24 24 24 24 24
29 29 29 30 29 27 26 26 25 23 22 18 15 17 19 19 17 16 16 14 13 12 11 11 10 11 11 8 6 6 6 5 3 3 4 6 8 8 8 6 5 4 4 4 5 6 7 9 10 10 11 10 10 10 11 12 12 13 14 14 13 13 13 14 15 16 16 14 17 20 17 15 17 17 17 19 20 21 22 23 23 23 24 24 24
28 28 29 29 25 23 22 20 18 20 19 16 16 18 17 17 16 14 16 15 13 12 12 12 11 11 10 7 7 7 5 4 3 3 5 7 8 7 5 3 3 4 4 4 5 7 8 9 10 9 10 9 10 11 11 12 13 13 14 13 13 13 12 14 16 19 20 18 18 22 22 19 18 18 17 19 20 20 22 23 23 24 25 25 25
25 25 26 25 21 20 20 16 15 19 19 17 18 18 16 15 14 14 16 16 14 13 13 12 10 11 11 9 8 6 4 3 3 5 7 7 6 3 2 2 3 3 4 5 6 8 9 9 9 9 9 10 11 11 11 12 13 13 14 14 14 14 14 17 20 21 22 21 22 24 24 23 22 22 24 26 28 28 28 29 29 28 28 28 27
22 23 23 22 20 20 18 17 18 20 20 19 18 17 16 14 15 17 16 14 13 12 12 12 10 11 11 9 7 5 4 4 5 6 7 6 3 1 1 2 3 3 4 6 7 8 8 8 9 9 10 10 11 12 12 13 14 14 15 15 15 17 19 20 21 21 22 23 24 24 24 24 23 25 28 31 33 34 35 35 35 33 32 31 30
Wind_Direction
180 177 181 176 167 169 171 172 167 158 154 155 155 151 151 149 146 144 143 142 142 140 139 139 137 135 133 132 130 127 125 123 121 116 113 110 109 108 108 104 95 91 101 118 128 134 139 138 131 124 115 103 81 62 44 27 19 33 55 66 92 122 128 130 133 128 115 110 104 99 105 110 107 105 101 97 93 91 92 90 88 85 82 81 79
174 173 179 177 169 169 171 174 170 162 158 158 157 153 153 151 149 148 147 146 145 144 143 141 139 136 134 133 130 128 126 124 121 117 114 112 111 109 109 105 96 94 106 123 133 140 150 163 160 150 133 97 67 54 42 34 44 62 70 78 94 112 123 128 129 122 115 109 101 99 103 106 106 104 99 95 93 92 91 89 89 87 86 83 80
171 169 176 177 170 170 172 176 172 166 163 162 160 156 156 154 153 153 152 150 147 146 145 143 141 139 138 135 131 128 125 122 120 118 116 115 112 109 108 105 103 108 120 128 132 137 145 163 168 161 148 108 72 58 55 62 70 75 79 87 95 104 114 120 119 116 113 108 103 101 100 100 100 96 94 93 90 89 88 88 88 88 86 84 82
173 168 173 176 171 171 173 176 173 168 167 166 164 160 159 156 157 158 156 153 149 147 147 147 145 143 141 137 133 127 123 119 116 117 116 114 110 106 105 106 113 118 121 122 123 124 128 141 151 150 144 128 97 80 81 85 84 84 87 91 96 100 103 105 105 106 105 103 99 96 91 86 82 80 80 81 81 81 79 79 79 79 79 79 79
175 168 172 175 172 173 175 178 174 169 169 169 168 165 162 160 160 160 158 155 152 150 150 151 149 146 143 138 132 126 120 114 114 116 116 114 110 106 106 109 113 112 109 108 108 111 117 126 132 136 137 130 108 98 97 96 93 91 92 94 96 97 97 97 98 99 97 92 86 82 79 73 68 64 63 67 70 71 70 68 67 67 66 68 70
176 170 172 175 173 175 177 180 177 170 169 170 170 170 167 164 163 161 161 158 155 152 153 153 151 147 142 137 130 125 119 114 115 116 116 114 112 109 110 111 108 104 101 100 102 106 112 118 122 127 128 120 109 105 104 100 98 97 97 97 96 96 96 96 95 94 90 85 79 75 73 71 67 60 58 62 60 60 60 57 55 55 55 55 55
178 174 174 176 175 176 178 180 179 173 171 171 171 173 172 169 166 165 164 161 158 154 155 154 151 147 142 137 131 126 120 117 115 111 110 110 111 112 113 112 108 103 100 99 102 106 110 113 116 119 119 115 112 109 105 102 101 100 99 98 97 96 95 94 92 89 86 83 80 77 75 73 69 65 65 68 63 62 64 60 54 51 51 48 45
180 177 175 177 177 178 180 181 181 177 174 172 172 174 175 173 170 168 167 162 159 157 156 156 152 148 144 139 134 129 121 116 110 105 106 107 111 113 116 114 109 105 101 102 106 109 111 113 114 115 116 115 113 109 105 102 100 99 97 96 94 95 94 92 88 85 83 80 77 75 73 69 66 64 62 64 64 64 64 59 53 50 47 43 40
181 179 176 178 179 180 181 182 182 180 177 174 174 176 176 175 174 171 168 163 160 159 158 157 155 152 148 143 137 131 121 112 106 107 109 110 113 115 118 115 111 107 104 107 109 111 113 114 115 115 115 113 110 107 103 100 97 95 92 89 88 90 90 86 83 80 78 75 73 71 69 67 63 59 56 55 56 57 55 49 46 43 40 36 33
181 179 179 179 181 181 182 183 183 182 179 176 175 178 177 175 175 173 169 164 162 162 162 160 158 155 150 145 138 130 119 111 108 111 114 115 117 119 119 116 113 110 109 112 113 112 112 113 115 115 113 110 107 105 102 97 92 88 86 82 81 83 84 81 77 75 73 71 70 68 67 66 63 59 56 53 51 50 49 45 42 38 34 31 28
180 180 180 182 183 183 183 183 183 183 181 179 177 179 179 176 175 173 170 166 165 166 164 162 161 157 151 145 139 130 121 114 112 114 118 121 123 124 122 120 116 113 113 116 116 114 111 111 111 110 110 107 103 101 98 94 89 85 82 78 76 80 83 80 75 73 72 71 69 67 64 62 59 57 55 53 51 47 45 44 40 36 32 30 27
180 181 181 184 185 184 184 184 184 184 183 181 179 180 179 177 175 173 172 168 167 168 165 164 162 158 153 147 141 133 125 118 117 120 123 126 127 128 127 124 120 116 117 120 120 117 114 111 108 106 105 102 97 93 92 91 90 86 80 75 74 78 82 78 74 72 70 69 67 64 60 57 53 51 51 49 48 45 42 41 39 35 31 29 27
180 181 183 185 187 186 185 185 185 184 184 183 181 182 179 176 176 175 174 170 168 168 167 164 162 159 155 151 146 137 128 123 122 125 127 130 131 131 130 127 124 120 119 124 125 122 120 117 114 112 108 104 97 89 84 85 86 82 77 73 72 73 74 71 68 67 65 63 61 59 57 54 50 45 44 45 44 42 40 38 37 35 31 29 27
181 181 184 186 188 188 187 187 186 186 185 184 183 183 180 177 178 179 176 172 171 170 170 167 165 163 160 156 149 139 132 129 127 130 131 133 135 134 133 130 127 123 122 127 132 131 129 128 126 123 120 116 106 94 78 72 72 73 72 71 72 69 65 61 59 59 55 52 52 54 53 51 48 44 41 42 42 40 37 35 33 32 30 27 26
184 185 186 189 191 188 189 190 189 188 187 186 185 185 181 180 181 181 176 173 175 175 174 171 169 167 164 159 150 142 136 133 132 133 135 137 138 137 135 133 130 127 125 128 136 139 138 138 138 136 135 131 121 105 81 62 54 55 57 58 61 61 57 53 47 44 38 36 40 43 43 42 41 40 37 35 36 34 32 31 29 27 26 24 23
188 190 190 192 193 191 191 192 192 190 188 188 187 186 183 183 183 180 177 177 179 179 177 174 172 169 166 160 152 145 140 138 137 135 137 140 141 141 139 136 133 130 127 129 137 145 147 147 149 148 149 149 144 133 110 72 36 30 30 27 29 30 31 32 27 25 25 25 27 28 27 24 24 27 26 24 24 24 24 25 24 21 20 18 18
190 192 195 195 194 194 193 193 192 190 189 189 189 187 185 186 184 179 179 181 182 183 181 176 173 171 167 162 155 149 146 142 140 138 140 143 144 144 142 139 137 134 131 131 137 147 153 155 158 160 165 169 173 180 196 231 288 334 358 359 358 356 355 359 2 2 3 5 8 12 10 7 8 12 13 13 13 13 14 15 15 14 13 12 10
191 194 198 198 197 197 195 193 191 190 188 188 188 188 187 187 183 180 182 185 186 184 180 177 175 172 168 164 157 153 150 146 143 141 142 145 147 147 146 144 141 139 136 134 137 145 155 162 167 172 181 189 197 215 234 251 273 289 310 327 330 330 329 334 339 340 339 341 345 349 352 355 359 3 6 6 5 4 5 6 6 6 6 6 4
193 196 200 201 200 198 194 192 191 189 188 186 185 186 189 187 182 183 186 187 187 183 179 178 176 172 168 164 158 155 152 150 147 143 143 145 150 151 150 147 145 144 141 139 138 141 152 164 175 185 196 204 214 228 244 257 270 277 280 284 296 306 312 320 327 329 328 328 330 331 332 336 345 354 358 359 358 357 356 358 359 360 1 360 357
195 198 200 202 200 198 195 192 190 189 188 185 183 185 188 185 183 186 187 189 187 183 182 181 177 170 167 163 158 155 154 154 151 145 143 145 150 154 154 151 148 147 145 144 141 142 148 159 174 190 202 212 224 237 248 260 269 272 271 270 278 291 302 312 321 327 326 323 323 321 319 322 331 339 344 348 349 347 348 350 354 355 355 353 350
196 198 201 203 200 198 195 191 190 190 188 186 182 183 186 184 184 187 188 189 188 186 184 182 177 171 166 162 158 155 157 157 155 151 147 146 149 155 157 154 152 151 150 147 145 147 153 161 174 190 206 220 233 244 253 261 268 270 266 265 271 282 293 303 313 321 323 320 318 315 314 318 325 329 333 336 338 339 340 342 346 347 346 345 342
196 197 201 203 200 197 193 191 191 191 190 188 184 182 183 183 185 188 189 190 189 187 184 183 179 172 165 162 161 159 160 160 158 158 156 151 150 155 158 156 156 156 153 151 153 159 165 172 184 200 218 234 244 252 258 261 266 269 265 263 267 275 288 295 301 307 311 313 313 311 310 316 321 325 326 325 328 332 332 333 335 337 337 336 334
196 199 201 202 199 196 194 195 193 190 190 189 186 183 182 182 184 187 189 190 189 186 183 183 178 171 165 163 163 163 163 161 160 162 162 159 154 156 159 159 159 158 159 164 170 176 180 189 201 217 233 245 253 258 262 263 264 266 263 261 262 267 279 290 296 298 301 305 308 307 306 310 314 318 320 319 322 323 324 322 318 321 326 327 326
197 201 202 200 199 196 196 198 194 192 191 190 188 186 185 183 182 186 190 190 187 184 183 181 174 167 163 162 165 165 161 159 160 160 160 160 156 158 160 162 162 165 171 175 180 187 197 210 221 237 250 257 264 267 270 270 269 269 267 263 262 264 274 285 292 293 295 300 306 307 306 307 309 312 315 315 316 317 319 314 304 304 310 318 322
199 202 202 201 200 198 198 198 194 193 193 191 190 188 188 186 184 187 190 188 185 184 180 176 169 162 160 162 164 160 155 155 157 156 155 153 150 151 153 157 159 164 170 169 175 188 204 232 255 264 272 278 284 284 285 286 284 283 281 277 275 274 279 285 288 289 291 296 302 305 306 306 307 308 310 310 311 312 315 311 308 309 306 310 316
201 202 202 202 202 201 201 199 195 194 194 193 191 190 190 188 187 190 189 186 185 183 177 171 163 158 158 161 161 155 152 153 153 152 149 142 139 138 140 143 143 145 148 152 159 185 261 299 308 305 302 298 298 298 298 299 298 297 296 294 293 292 291 290 289 289 289 294 299 301 303 304 304 305 305 307 307 309 311 308 308 310 309 311 313
204 205 204 204 203 203 203 201 197 195 192 191 190 190 191 191 192 193 189 186 185 181 175 167 161 158 160 161 159 154 151 151 150 147 143 136 132 133 135 136 137 140 144 150 152 280 301 305 308 310 306 303 302 303 307 308 310 310 310 309 308 306 302 299 297 295 295 296 299 300 302 303 302 302 301 303 304 307 308 305 305 309 312 315 316
208 207 205 206 206 204 204 202 199 196 191 191 192 192 193 195 197 195 191 189 186 181 175 167 163 163 163 164 162 158 154 152 149 147 144 139 138 138 138 139 148 155 157 167 192 255 299 313 312 311 305 307 308 311 316 317 320 321 322 321 319 317 314 312 310 308 307 305 306 306 306 306 304 302 300 301 302 304 305 301 304 310 310 309 313
210 209 207 208 209 206 204 202 201 198 194 194 194 193 195 197 198 196 192 189 186 182 178 170 166 168 168 169 168 165 162 159 155 152 151 151 154 154 154 156 168 174 168 186 214 256 331 342 334 328 321 322 322 323 327 328 330 329 328 326 323 321 318 316 315 313 313 312 313 312 313 312 309 305 301 300 300 300 300 299 301 305 308 309 312
210 209 208 209 209 207 206 203 202 199 197 196 194 194 198 198 197 196 191 189 187 184 181 173 168 170 172 175 174 172 170 168 165 160 158 162 169 176 186 191 200 209 209 233 255 344 355 351 344 345 342 338 334 332 335 335 333 330 328 326 322 320 318 316 315 314 314 313 313 313 313 312 309 307 303 301 300 298 299 300 302 306 310 313 314
208 206 207 208 208 208 206 203 201 200 198 195 194 196 198 198 197 194 190 191 191 188 183 175 173 173 175 178 177 175 172 170 167 163 162 168 181 193 206 208 214 225 230 246 308 8 357 351 349 349 347 342 340 338 338 336 333 329 327 325 322 322 320 318 315 313 312 311 311 310 310 309 309 309 307 306 304 303 303 303 305 306 307 308 311
205 203 205 207 208 207 205 203 201 198 196 195 195 196 196 196 196 192 189 192 192 189 184 179 180 177 173 177 177 174 170 168 165 163 165 173 188 197 205 206 209 223 231 260 4 11 360 357 356 354 352 350 348 344 341 337 333 329 325 323 323 323 321 318 316 313 311 310 309 309 309 309 310 310 310 310 309 308 306 306 306 305 307 309 313
204 201 204 208 208 208 206 202 199 197 195 194 195 194 193 195 196 191 189 192 189 186 186 186 186 180 172 174 174 173 171 171 168 164 167 177 195 198 197 195 195 210 229 5 8 4 1 359 359 358 357 354 348 342 338 334 331 327 322 322 322 322 323 321 320 317 314 312 310 308 307 308 310 311 310 310 310 310 306 306 307 308 310 314 315
204 202 206 209 207 207 208 203 198 196 195 195 195 194 194 197 195 190 190 190 185 187 192 194 191 181 176 177 174 174 175 174 170 165 163 173 205 199 182 176 170 170 2 3 356 355 357 356 357 355 352 348 341 337 336 336 336 330 325 325 325 325 329 329 327 324 320 316 312 308 306 306 309 309 310 310 309 310 308 308 309 311 311 312 312
207 207 210 210 207 208 210 206 199 195 195 197 196 195 195 196 193 190 192 189 186 193 198 198 192 183 185 185 177 174 176 173 165 161 164 173 196 201 168 146 87 18 360 353 349 350 352 351 350 347 344 341 336 336 338 341 342 335 331 332 331 332 337 336 334 329 325 322 316 309 305 305 307 309 310 310 310 308 307 306 306 307 307 306 305
209 212 214 212 208 208 210 210 204 199 199 198 194 193 194 195 193 191 191 189 190 194 197 197 193 189 187 183 177 176 177 171 163 161 173 181 197 236 291 26 11 5 354 349 347 344 343 343 342 341 338 336 334 336 338 342 344 338 335 335 336 339 340 339 336 330 326 321 316 310 305 305 309 313 314 312 311 308 305 303 302 302 303 302 301
210 214 216 214 210 207 209 209 205 203 203 198 193 193 193 194 193 191 190 190 190 190 195 200 196 189 183 176 177 180 179 174 174 171 173 187 224 265 320 349 350 359 353 350 345 338 336 338 338 335 332 331 330 333 335 339 341 339 336 334 335 337 336 334 331 326 322 315 309 307 307 311 314 315 315 313 311 308 304 302 301 300 299 298 298
212 215 217 215 212 210 209 208 205 205 203 199 196 192 191 195 195 192 190 188 189 190 195 201 196 189 182 177 178 183 183 183 197 197 185 195 231 276 301 329 349 355 349 346 340 332 333 336 334 329 329 329 329 334 339 342 344 342 337 333 333 331 326 322 321 314 307 304 305 310 313 314 314 314 315 314 311 309 306 304 302 300 298 296 295
214 216 216 214 213 212 211 210 209 206 203 201 199 193 192 197 195 191 189 188 189 191 195 198 196 197 191 182 184 188 190 193 207 207 199 208 220 255 294 336 349 345 336 333 331 328 331 333 329 327 328 331 335 340 344 347 350 347 339 334 327 318 309 300 296 298 300 306 312 317 317 313 311 311 312 313 312 311 308 305 303 301 299 297 295
215 216 215 214 213 213 213 213 212 209 204 202 202 196 194 196 194 191 190 189 191 194 198 197 196 201 200 196 194 189 194 202 208 208 212 230 239 273 327 337 332 328 324 321 323 326 328 326 324 325 327 333 339 342 343 346 352 351 342 333 320 304 291 280 276 286 304 315 320 320 317 313 310 310 311 313 314 313 312 307 304 301 299 297 295
217 217 215 214 212 213 216 216 215 211 206 205 204 199 195 194 192 190 191 195 199 199 197 193 195 202 200 205 205 190 200 209 203 206 225 244 251 304 315 311 311 316 314 312 317 323 322 320 322 325 330 336 339 342 345 347 349 350 343 330 316 301 286 276 276 289 307 317 324 327 323 319 318 317 318 318 318 316 314 312 307 304 301 298 296
218 217 216 214 212 212 217 218 217 211 205 207 208 202 196 194 192 190 193 202 202 195 192 193 198 206 204 206 207 192 200 203 200 212 231 240 248 294 300 302 305 307 307 309 317 322 319 319 323 328 335 338 341 347 350 350 348 347 349 342 311 307 295 281 294 301 310 325 336 337 331 328 327 326 327 327 326 324 321 320 316 314 310 306 303
218 217 216 215 212 212 217 219 216 209 203 205 207 202 194 191 191 192 197 204 200 191 194 203 205 207 206 200 195 195 199 196 196 211 221 223 250 284 300 305 302 303 308 314 320 321 319 321 326 333 339 343 347 350 353 355 354 352 357 1 353 1 322 313 329 321 331 348 347 342 336 335 335 334 336 336 335 335 333 330 327 324 321 317 314
218 217 216 215 212 213 217 217 214 207 202 203 202 196 189 184 189 196 200 203 202 199 202 210 209 203 199 195 197 201 198 191 187 192 203 212 233 270 305 309 301 302 308 316 320 320 324 329 333 339 345 349 350 352 357 1 2 4 9 9 18 53 65 352 360 358 1 7 356 349 347 344 344 346 347 348 347 347 346 343 340 340 337 333 330
218 218 217 216 215 215 217 216 213 207 202 200 195 191 186 182 190 198 200 200 203 210 211 209 203 198 197 193 197 201 196 189 183 180 202 226 249 298 315 312 307 309 316 322 325 327 335 338 341 348 352 354 354 356 2 7 13 21 27 31 31 39 8 3 25 22 5 16 13 2 1 1 3 9 11 12 10 7 4 0 356 355 353 350 348
219 219 218 219 220 219 220 218 212 207 203 195 190 191 187 186 195 198 198 199 201 210 216 211 199 195 198 193 194 197 188 180 178 185 224 258 285 309 312 308 311 320 329 334 337 340 343 346 352 356 356 358 1 4 9 17 27 32 36 43 43 32 14 14 25 22 15 28 24 13 10 10 13 18 21 22 20 19 16 12 9 5 2 359 356
220 220 221 223 224 224 225 220 210 207 203 191 186 193 191 189 197 200 204 209 209 210 213 211 202 193 191 190 193 191 181 182 194 221 256 292 304 307 305 304 315 327 335 340 342 347 351 357 0 359 1 7 12 16 24 31 36 39 40 43 41 34 28 21 20 24 29 31 29 29 26 20 20 21 21 21 20 19 17 14 11 8 5 3 0
220 222 224 227 229 231 227 215 207 208 203 187 186 199 198 192 192 200 212 218 219 218 210 202 197 189 186 188 195 198 200 205 221 258 293 310 306 303 302 307 326 336 345 348 349 358 2 5 5 5 12 20 28 36 43 43 43 45 44 43 41 38 35 28 27 32 33 28 30 38 46 46 41 34 30 29 26 24 22 18 14 12 10 7 4
220 224 227 229 232 228 218 205 201 204 196 185 191 198 199 196 195 206 217 216 214 217 210 199 189 186 192 206 217 217 218 221 246 281 299 308 304 302 305 321 348 352 360 3 5 11 10 9 10 17 29 39 49 53 53 51 49 49 48 49 48 47 45 39 36 37 37 35 31 35 43 50 51 50 48 43 39 37 33 29 24 21 18 14 10
219 223 227 229 224 215 211 203 198 198 193 192 197 193 191 195 204 219 224 221 216 213 206 194 186 192 206 224 228 220 218 235 271 292 302 305 299 298 315 354 7 12 20 19 17 15 13 14 20 35 49 57 61 61 60 58 57 58 57 57 55 52 48 42 38 37 38 38 36 35 38 40 40 41 41 41 40 39 35 32 30 28 24 19 15
213 218 223 221 211 207 212 209 204 200 191 193 195 188 187 196 211 222 227 230 224 213 204 195 193 204 214 225 229 221 234 265 292 307 309 304 290 283 29 27 30 39 34 25 20 18 19 27 40 55 61 65 66 65 66 66 66 65 60 56 53 49 47 44 41 40 40 41 40 39 39 40 38 34 34 35 35 35 32 29 29 28 24 21 17